Time,TemperatureF,DewpointF,PressureIn,WindDirection,WindDirectionDegrees,WindSpeedMPH,WindSpeedGustMPH,Humidity,HourlyPrecipIn,Conditions,Clouds,dailyrainin,SoftwareType,DateUTC
2013-01-03 00:12:00,16.0,-99.9,30.08,ESE,118,7.0,10.0,-999,-99.99,,,-99.99,,2013-01-03 05:12:00,
2013-01-03 00:42:00,17.0,-99.9,30.07,SE,124,5.0,8.0,-999,-99.99,,,-99.99,,2013-01-03 05:42:00,
2013-01-03 01:12:00,17.0,-99.9,30.06,SE,129,4.0,8.0,-999,-99.99,,,-99.99,,2013-01-03 06:12:00,
2013-01-03 01:43:00,17.0,-99.9,30.05,East,96,4.0,6.0,-999,-99.99,,,-99.99,,2013-01-03 06:43:00,
2013-01-03 02:12:00,18.0,-99.9,30.04,ESE,121,5.0,6.0,-999,-99.99,,,-99.99,,2013-01-03 07:12:00,
2013-01-03 02:43:00,19.0,-99.9,30.03,ESE,121,4.0,6.0,-999,-99.99,,,-99.99,,2013-01-03 07:43:00,
2013-01-03 03:12:00,18.0,-99.9,30.02,East,79,4.0,6.0,-999,-99.99,,,-99.99,,2013-01-03 08:12:00,
2013-01-03 04:12:00,18.0,-99.9,30.00,SE,135,2.0,4.0,-999,-99.99,,,-99.99,,2013-01-03 09:12:00,
2013-01-03 04:43:00,18.0,-99.9,29.99,ENE,74,1.0,3.0,-999,-99.99,,,-99.99,,2013-01-03 09:43:00,
2013-01-03 05:12:00,19.0,-99.9,29.98,NE,44,2.0,4.0,-999,-99.99,,,-99.99,,2013-01-03 10:12:00,
2013-01-03 05:43:00,19.0,-99.9,29.97,ESE,115,2.0,4.0,-999,-99.99,,,-99.99,,2013-01-03 10:43:00,
2013-01-03 06:12:00,19.0,-99.9,29.96,SE,128,3.0,5.0,-999,-99.99,,,-99.99,,2013-01-03 11:12:00,
2013-01-03 06:43:00,19.0,-99.9,29.95,SE,133,2.0,5.0,-999,-99.99,,,-99.99,,2013-01-03 11:43:00,
2013-01-03 07:12:00,19.0,-99.9,29.95,North,9,2.0,4.0,-999,-99.99,,,-99.99,,2013-01-03 12:12:00,
2013-01-03 07:43:00,19.0,-99.9,29.96,North,4,5.0,7.0,-999,-99.99,,,-99.99,,2013-01-03 12:43:00,
2013-01-03 08:13:00,18.0,-99.9,29.94,NNE,24,4.0,4.0,-999,-99.99,,,-99.99,,2013-01-03 13:13:00,
2013-01-03 09:12:00,19.0,-99.9,29.93,SSW,193,2.0,4.0,-999,-99.99,,,-99.99,,2013-01-03 14:12:00,
2013-01-03 10:13:00,20.0,-99.9,29.93,SSW,211,2.0,4.0,-999,-99.99,,,-99.99,,2013-01-03 15:13:00,
2013-01-03 10:43:00,22.0,-99.9,29.93,SSW,212,5.0,7.0,-999,-99.99,,,-99.99,,2013-01-03 15:43:00,
2013-01-03 11:12:00,23.0,-99.9,29.93,WSW,243,5.0,9.0,-999,-99.99,,,-99.99,,2013-01-03 16:12:00,
2013-01-03 11:43:00,23.0,-99.9,29.93,SW,234,7.0,10.0,-999,-99.99,,,-99.99,,2013-01-03 16:43:00,
2013-01-03 12:13:00,24.0,-99.9,29.92,SW,234,12.0,16.0,-999,-99.99,,,-99.99,,2013-01-03 17:13:00,
2013-01-03 12:43:00,26.0,-99.9,29.91,West,269,12.0,18.0,-999,-99.99,,,-99.99,,2013-01-03 17:43:00,
2013-01-03 14:13:00,27.0,-99.9,29.91,WNW,302,17.0,21.0,-999,-99.99,,,-99.99,,2013-01-03 19:13:00,
2013-01-03 15:13:00,27.0,-99.9,29.92,WNW,299,18.0,26.0,-999,-99.99,,,-99.99,,2013-01-03 20:13:00,
2013-01-03 15:43:00,26.0,-99.9,29.93,NW,308,20.0,27.0,-999,-99.99,,,-99.99,,2013-01-03 20:43:00,
2013-01-03 16:13:00,26.0,-99.9,29.94,WNW,300,18.0,26.0,-999,-99.99,,,-99.99,,2013-01-03 21:13:00,
2013-01-03 17:12:00,26.0,-99.9,29.96,WNW,283,15.0,20.0,-999,-99.99,,,-99.99,,2013-01-03 22:12:00,
2013-01-03 17:43:00,25.0,-99.9,29.98,WNW,285,14.0,20.0,-999,-99.99,,,-99.99,,2013-01-03 22:43:00,
2013-01-03 18:13:00,25.0,-99.9,29.98,West,274,14.0,19.0,-999,-99.99,,,-99.99,,2013-01-03 23:13:00,
2013-01-03 18:43:00,24.0,-99.9,29.98,West,268,13.0,20.0,-999,-99.99,,,-99.99,,2013-01-03 23:43:00,
2013-01-03 19:13:00,24.0,-99.9,29.98,West,269,8.0,13.0,-999,-99.99,,,-99.99,,2013-01-04 00:13:00,
2013-01-03 19:43:00,24.0,-99.9,29.98,WSW,250,9.0,14.0,-999,-99.99,,,-99.99,,2013-01-04 00:43:00,
2013-01-03 20:13:00,23.0,-99.9,29.98,WSW,246,9.0,14.0,-999,-99.99,,,-99.99,,2013-01-04 01:13:00,
2013-01-03 20:43:00,24.0,-99.9,29.98,WSW,257,8.0,12.0,-999,-99.99,,,-99.99,,2013-01-04 01:43:00,
2013-01-03 21:12:00,24.0,-99.9,29.96,West,260,9.0,17.0,-999,-99.99,,,-99.99,,2013-01-04 02:12:00,
2013-01-03 22:12:00,22.0,-99.9,29.93,SW,234,3.0,7.0,-999,-99.99,,,-99.99,,2013-01-04 03:12:00,
2013-01-03 22:43:00,21.0,-99.9,29.91,SSW,195,2.0,4.0,-999,-99.99,,,-99.99,,2013-01-04 03:43:00,
2013-01-03 23:12:00,21.0,-99.9,29.90,South,177,3.0,5.0,-999,-99.99,,,-99.99,,2013-01-04 04:12:00,
2013-01-03 23:42:00,21.0,-99.9,29.87,SSE,166,2.0,5.0,-999,-99.99,,,-99.99,,2013-01-04 04:42:00,